{"data":{"norad_id":67904,"intl_designator":"2026-036A","name":"STARLINK-36814","alt_names":[],"object_type":"PAYLOAD","status":"ACTIVE","operator":null,"country":"US","launch_date":"2026-02-22","launch_site_code":"AFETR","launch_vehicle":null,"mission":null,"orbit_class":"UNKNOWN","rcs_meters":null,"size_class":null,"mass_kg":null,"dimensions":null,"purposes":["comms"],"wikipedia_slug":null,"has_3d_model":false,"image_url":null,"decayed_at":null,"tle_current":{"epoch":"2026-05-25T02:26:30.444000Z","epoch_age_seconds":69302,"freshness":"FRESH","line1":"1 67904U 26036A   26145.10174125  .00012954  00000+0  47935-3 0  9993","line2":"2 67904  42.9982 174.1603 0001259 270.0499  90.0208 15.27585229 15407","mean_motion":15.27585229,"eccentricity":0.0001259,"inclination_deg":42.9982,"raan_deg":174.1603,"arg_perigee_deg":270.0499,"mean_anomaly_deg":90.0208,"bstar":0.00047935,"rev_number":1540,"period_min":94.266426033896,"perigee_km":482.16961721898,"apogee_km":483.89725993541,"semimajor_km":6861.1704385772,"source":"CELESTRAK","updated_at":"2026-05-25T13:38:21.737153Z"}}}